Regional Weather Roundup
Issued by NWS State College, PA

Home | Current Version | Previous Version | Text Only | Print | Product List | Glossary On
Versions: 1 2 3 4 5 6 7 8 9 10 11 12 13 14 15 16 17 18 19 20 21 22 23 24 25 26 27 28 29 30 31 32 33 34 35 36 37 38 39 40 41 42 43 44 45 46 47 48 49 50
000
ASUS41 KCTP 260710
RWRCTP
REGIONAL WEATHER ROUNDUP
NATIONAL WEATHER SERVICE STATE COLLEGE PA
300 AM EDT TUE SEP 26 2017

Note: "fair" indicates few or no clouds below 12,000 feet with no
significant weather and/or obstructions to visibility.

* = STATION THAT DOES NOT REPORT PRECIPITATION /E.G. RAIN...SNOW...ETC/
    THUNDER OR FOG.

PAZ002>004-007>009-013>016-020>023-029>032-260800-
WESTERN PENNSYLVANIA

CITY           SKY/WX    TMP DP  RH WIND       PRES   REMARKS
ERIE           CLOUDY    72  65  78 S3        30.01S
MEADVILLE      CLOUDY    69  66  90 CALM      30.06S
FRANKLIN*      CLOUDY    67  66  97 CALM      30.07R
NEW CASTLE     FAIR      64  64 100 CALM      30.05R
BEAVER COUNTY  NOT AVBL
BUTLER*        PTCLDY    65  63  93 CALM      30.05S
PITTSBURGH INT MOCLDY    70  65  84 CALM      30.04R
PITTSBURGH     PTCLDY    72  65  78 CALM      30.03S HAZE
INDIANA*       CLEAR     66  66 100 CALM      30.08S
LATROBE        PTCLDY    64  64 100 CALM      30.05S FOG
WASHINGTON CO* CLOUDY    64  61  88 CALM      30.04S
$$

PAZ004>006-010>012-017>019-024>028-033>037-041-042-045-046-049>053-260800-
CENTRAL PENNSYLVANIA

CITY           SKY/WX    TMP DP  RH WIND       PRES   REMARKS
BRADFORD       PTCLDY    61  61 100 CALM      30.09S
DUBOIS         PTCLDY    68  63  84 E3        30.07S
CLEARFIELD     PTCLDY    64  64 100 CALM      30.07S
JOHNSTOWN      PTCLDY    70  63  78 SE3       30.09F
ALTOONA        CLEAR     64  64 100 CALM      30.07S FOG
STATE COLLEGE  PTCLDY    67  64  92 CALM      30.05F
WILLIAMSPORT   PTCLDY    68  67  96 CALM      30.02S
SELINSGROVE    PTCLDY    64  64 100 CALM      30.04S FOG
FT INDIANTOWN  CLEAR     66  66 100 CALM      30.02R FOG
CAPITAL CITY   PTCLDY    70  66  87 CALM      30.03S
HARRISBURG     PTCLDY    71  69  93 E3        30.02F
YORK           CLEAR     65  65 100 CALM      30.03F
$$

PAZ038>040-043-044-047-048-054-055-060>062-067>071-260800-
EASTERN PENNSYLVANIA

CITY           SKY/WX    TMP DP  RH WIND       PRES   REMARKS
SCRANTON       PTCLDY    69  65  86 E5        30.06R
MOUNT POCONO   CLEAR     60  60 100 CALM      30.10S
ALLENTOWN      CLEAR     70  64  81 CALM      30.05R
QUAKERTOWN*    SUNNY     64  64 100 CALM      30.06S
READING        CLEAR     69  69 100 CALM      30.03S
LANCASTER      CLEAR     67  67 100 E5        30.04S
COATESVILLE    MOSUNNY   66  64  94 N3        30.06S
POTTSTOWN      MOCLDY    66  64  93 CALM      30.06S
BLUE BELL      PTCLDY    61  61 100 CALM      30.05S
DOYLESTOWN     PTCLDY    64  63  96 CALM      30.04S
WILLOW GROVE   NOT AVBL
NORTH PHILA    CLOUDY    69  65  86 E6        30.04F
PHILADELPHIA   MOCLDY    67  64  90 NE3       30.02F
$$




USA.gov is the U.S. government's official web portal to all federal, state and local government web resources and services.